Meteo Giornale » Osservazioni meteo Italia » Bologna-Borgo Panigale

ore: 19:50 - Osservazioni Meteo Bologna-Borgo Panigale
Lat. 44° 32' N Lon. 11° 18' E Alt. 36 metri s.l.m.

foschia Europe/Rome

7 °C

Foschia

Temp. 24 Ore

2 °C

11 °C

Nord

3.7 Km/h

Dew point 7 °C

Umidità 100 %

Visibilità  4 Km

Il sole sorge alle ore 07:37

Il sole tramonta alle ore 17:17

Data e Ora Cielo e Fenomeni T °C DP °C Um. % Pres. hPa Vis. km Vento km/h
Oggi h: 19:50 foschia Foschia 7 7 100 1016 4 N 3.7
Oggi h: 19:20 foschia Foschia 7 7 100 1016 4 N 5.5
Oggi h: 18:20 foschia Foschia 8 6 87 1017 4 N 1.8
Oggi h: 17:50 foschia Foschia 9 7 87 1017 4 N 5.5
Oggi h: 17:20 foschia Foschia 9 7 87 1017 4 N 5.5
Oggi h: 16:20 nuvoloso Nuvoloso 10 7 81 1018 6 N 5.5
Oggi h: 15:50 poco_nuvoloso Poco Nuvoloso 11 7 76 1018 6 N 3.7
Oggi h: 15:20 poco_nuvoloso Poco Nuvoloso 11 7 76 1018 6 N 3.7
Oggi h: 14:50 nuvoloso Nuvoloso 11 6 71 1018 7 N 5.5
Oggi h: 14:20 molto_nuvoloso Molto Nuvoloso 11 7 76 1018 7 N 7.4
Oggi h: 13:50 nuvoloso Nuvoloso 11 7 76 1018 7 N 9.3
Oggi h: 13:20 poco_nuvoloso Poco Nuvoloso 11 7 76 1019 7 N 7.4
Oggi h: 12:50 sereno Sereno 11 6 71 1019 8 N 5.5
Oggi h: 12:20 sereno Sereno 10 6 76 1019 8 N 5.5
Oggi h: 11:50 sereno Sereno 10 6 76 1020 8 N 3.7
Oggi h: 11:20 sereno Sereno 10 5 71 1020 8 N 5.5
Oggi h: 10:50 poco_nuvoloso Poco Nuvoloso 9 6 81 1020 10 N 3.7
Oggi h: 10:20 poco_nuvoloso Poco Nuvoloso 8 5 81 1020 10 SO 7.4
Oggi h: 09:50 poco_nuvoloso Poco Nuvoloso 7 5 87 1020 10 SO 7.4
Oggi h: 09:20 poco_nuvoloso Poco Nuvoloso 5 4 93 1020 10 N 5.5
Oggi h: 08:50 sereno Sereno 4 3 93 1020 10 N 5.5
Oggi h: 08:20 sereno Sereno 3 3 100 1020 10 S/SO 7.4
Oggi h: 07:50 sereno Sereno 2 1 93 1020 10 S/SO 7.4
Oggi h: 07:20 sereno Sereno 3 2 93 1020 10 N 3.7
Oggi h: 06:50 sereno Sereno 4 3 93 1020 10 S 7.4
Oggi h: 06:20 sereno Sereno 3 2 93 1019 10 S/SO 9.3
Oggi h: 04:50 sereno Sereno 4 3 93 1019 10 S/SO 11.1
Oggi h: 03:50 sereno Sereno 4 3 93 1020 8 S/SO 11.1
Oggi h: 03:20 sereno Sereno 4 3 93 1020 8 S/SO 7.4
Oggi h: 02:20 sereno Sereno 4 3 93 1020 7 S/SO 11.1
Oggi h: 01:50 sereno Sereno 4 3 93 1020 6 SO 7.4
Oggi h: 01:20 sereno Sereno 4 3 93 1020 6 S/SO 7.4
Oggi h: 00:50 sereno Sereno 3 3 100 1020 6 SO 9.3
Oggi h: 00:20 sereno Sereno 4 3 93 1020 6 S/SO 7.4
Ieri h: 23:50 sereno Sereno 4 3 93 1020 6 S/SO 11.1
Ieri h: 23:20 sereno Sereno 4 3 93 1020 6 S/SO 9.3
Ieri h: 22:50 sereno Sereno 4 4 100 1020 6 N 3.7
Ieri h: 22:20 nebbia Nebbia a Strati 4 4 100 1020 5 N 5.5
Ieri h: 21:50 nebbia Nebbia a Strati 4 4 100 1020 5 N 5.5
Ieri h: 21:20 nebbia Nebbia a Strati 4 4 100 1020 5 N 5.5
Ieri h: 20:50 nebbia Nebbia a Strati 4 4 100 1020 4 N 3.7
Ieri h: 20:20 nebbia Nebbia a Strati 6 6 100 1020 6 N 5.5
Ieri h: 19:50 nebbia Nebbia a Strati 5 5 100 1020 6 N 3.7